loading
|

STARLINK-11247, 60720

Orbit data source: Space-Track

STARLINK-11247, 60720 is a payload satellite owned by SpaceX/Seattle (US) in LEO that was launched on Wed, 28 Aug 2024 UTC via an FALCON 9 launch vehicle from the Air Force Eastern Test Range (AFETR). Payloads include a variety of satellites, spacecraft, and rockets equipped with specific instruments for various scientific and technological missions. These include communications satellites like Starlink; space stations such as the ISS; scientific satellites like the Hubble; Earth observation satellites from companies like Planet Labs, Umbra, and HawkEye 360; GPS; miniature CubeSats for education and research; and military/defense satellites.

Next visibility unknown
Next conjunction unknown
Loading greatness...
STARLINK-11247 details
Identifier
60720, 2024-152A
Orbit
LEO
Last TLE update4 hours ago
Origin
Flag of USSpaceX/Seattle (US)
ManufacturerSpaceX/Seattle
MissionOperational spacecraft
Bus & MotorSTARLINK V2M, Unknown motor
Mass750 kg wet, ~700 kg dry
Launch date (UTC)
2024-08-28 (2 months ago)
Launch vehicle
FALCON 9
Launch site
Air Force Eastern Test Range (AFETR)
Object type
Payload
Rocket body
Debris
Shape & HBRUnknown
Radar Cross SectionLarge (>1 m²)

Expand to show TLE details & history

TLE from 4 hours ago
0 STARLINK-11247
1 60720U 24152A   24288.50697762 -.00003479  00000-0 -23854-4 0  9996
2 60720  53.1595 116.5231 0001432  79.9868 280.1312 15.69716479  8551
Epoch: 2024-10-14T12:10Z
Definitive object data (Epoch: 2024-10-14T12:10:02.866Z)
Latitude0.00003°
Longitude-89.52195°
Altitude360.454 km
Speed7.694 km/s
True Right ascension07h 46m 05s
True Declination0° 00' 00"
Sunlit
Object was in daylight at TLE epoch
Predictive object data (real-time)
Latitude50.81836°
Longitude23.68714°
Altitude364.822 km
Speed7.697 km/s
Apparent Right ascension19h 06m 41s
Apparent Declination11° 17' 18"
Sunlit
Object is in daylight
Predictive observer data (real-time)
Local Sidereal Time10:14:19
Azimuth50.994° ENE
Elevation-22.846°
Doppler factor1
Orbital elements
Apogee360.934 km
Perigee359.004 km
Semi-major axis6,738.106 km
Eccentricity0.0001432
Inclination53.1595°
RAAN116.5231°
Arg. of periapsis79.9868°
True anomaly280.11505°
Mean anomaly280.1312°
Eccentric anomaly280.12312°
Mean motion3.92407 °/min
BSTAR-0.000023854
Period91.74 mins
No data available

STARLINK-11247 Visibility forecast

Observer location: 39.9160978°, -105.1181434

STARLINK-11247 is not visible in the next 10 days
Span
Click to sort rows by Start time (UTC) header in descending order
Start Az.
Max El. time (UTC)
Max El. Az.
Max El.
End time (UTC)
End Az.